TimeCDT,TemperatureF,Dew PointF,Humidity,Sea Level PressureIn,VisibilityMPH,Wind Direction,Wind SpeedMPH,Gust SpeedMPH,PrecipitationIn,Events,Conditions,WindDirDegrees,DateUTC
12:14 AM,40.3,39.4,97,29.82,10.0,Calm,Calm,-,N/A,,Clear,0,2013-10-07 05:14:00
12:35 AM,40.6,39.7,97,29.82,10.0,Calm,Calm,-,N/A,,Clear,0,2013-10-07 05:35:00
12:55 AM,40.6,39.7,97,29.82,10.0,Calm,Calm,-,N/A,,Scattered Clouds,0,2013-10-07 05:55:00
1:14 AM,40.8,39.9,97,29.82,10.0,Calm,Calm,-,N/A,,Clear,0,2013-10-07 06:14:00
1:35 AM,40.6,39.7,97,29.82,10.0,Calm,Calm,-,N/A,,Clear,0,2013-10-07 06:35:00
1:54 AM,40.5,39.6,97,29.82,10.0,Calm,Calm,-,N/A,,Scattered Clouds,0,2013-10-07 06:54:00
2:15 AM,39.6,38.5,96,29.82,10.0,Calm,Calm,-,N/A,,Mostly Cloudy,0,2013-10-07 07:15:00
2:35 AM,41.0,40.1,97,29.82,10.0,Calm,Calm,-,N/A,,Overcast,0,2013-10-07 07:35:00
2:54 AM,41.5,40.6,97,29.81,10.0,Calm,Calm,-,N/A,,Overcast,0,2013-10-07 07:54:00
3:15 AM,42.3,41.4,97,29.82,10.0,Calm,Calm,-,N/A,,Mostly Cloudy,0,2013-10-07 08:15:00
3:35 AM,40.3,39.2,96,29.82,10.0,Calm,Calm,-,N/A,,Scattered Clouds,0,2013-10-07 08:35:00
3:54 AM,41.5,40.6,97,29.81,10.0,Calm,Calm,-,N/A,,Mostly Cloudy,0,2013-10-07 08:54:00
4:15 AM,41.4,40.3,96,29.82,10.0,Calm,Calm,-,N/A,,Mostly Cloudy,0,2013-10-07 09:15:00
4:35 AM,41.0,39.7,95,29.82,10.0,West,3.5,-,N/A,,Scattered Clouds,270,2013-10-07 09:35:00
4:54 AM,40.5,39.2,95,29.82,10.0,Calm,Calm,-,N/A,,Scattered Clouds,0,2013-10-07 09:54:00
5:15 AM,39.4,38.1,95,29.83,10.0,Calm,Calm,-,N/A,,Scattered Clouds,0,2013-10-07 10:15:00
5:35 AM,39.2,37.9,95,29.83,10.0,Calm,Calm,-,N/A,,Mostly Cloudy,0,2013-10-07 10:35:00
5:54 AM,39.2,38.1,96,29.84,10.0,Calm,Calm,-,N/A,,Scattered Clouds,0,2013-10-07 10:54:00
6:15 AM,39.2,37.9,95,29.84,10.0,Calm,Calm,-,N/A,,Scattered Clouds,0,2013-10-07 11:15:00
6:35 AM,39.2,37.9,95,29.85,10.0,Calm,Calm,-,N/A,,Scattered Clouds,0,2013-10-07 11:35:00
6:54 AM,38.7,37.6,96,29.86,10.0,Calm,Calm,-,N/A,,Clear,0,2013-10-07 11:54:00
7:15 AM,38.3,37.2,96,29.86,10.0,Calm,Calm,-,N/A,,Clear,0,2013-10-07 12:15:00
7:34 AM,37.2,36.0,95,29.86,10.0,Calm,Calm,-,N/A,,Clear,0,2013-10-07 12:34:00
7:54 AM,39.2,38.1,96,29.87,10.0,Calm,Calm,-,N/A,,Clear,0,2013-10-07 12:54:00
8:15 AM,41.5,40.6,97,29.88,10.0,NW,3.5,-,N/A,,Clear,310,2013-10-07 13:15:00
8:34 AM,43.7,42.8,97,29.89,10.0,Calm,Calm,-,N/A,,Clear,0,2013-10-07 13:34:00
8:54 AM,46.0,43.5,91,29.90,10.0,NNW,5.8,-,N/A,,Scattered Clouds,330,2013-10-07 13:54:00
9:15 AM,48.0,43.7,85,29.91,10.0,NNW,3.5,-,N/A,,Scattered Clouds,330,2013-10-07 14:15:00
9:34 AM,49.8,44.6,82,29.91,10.0,NNW,5.8,-,N/A,,Scattered Clouds,330,2013-10-07 14:34:00
9:55 AM,51.1,44.1,77,29.92,10.0,NNW,5.8,-,N/A,,Clear,330,2013-10-07 14:55:00
10:15 AM,52.5,43.9,72,29.93,10.0,NNW,6.9,-,N/A,,Scattered Clouds,330,2013-10-07 15:15:00
10:35 AM,53.8,44.1,70,29.93,10.0,Calm,Calm,-,N/A,,Clear,0,2013-10-07 15:35:00
10:55 AM,55.0,44.1,67,29.94,10.0,NW,4.6,-,N/A,,Scattered Clouds,310,2013-10-07 15:55:00
11:14 AM,56.3,44.2,64,29.94,10.0,NNW,6.9,-,N/A,,Scattered Clouds,330,2013-10-07 16:14:00
11:35 AM,57.2,43.9,61,29.94,10.0,North,3.5,-,N/A,,Scattered Clouds,350,2013-10-07 16:35:00
11:55 AM,57.9,42.8,57,29.95,10.0,NNW,4.6,-,N/A,,Scattered Clouds,340,2013-10-07 16:55:00
12:14 PM,58.5,43.2,57,29.95,10.0,NNW,5.8,-,N/A,,Clear,340,2013-10-07 17:14:00
12:35 PM,59.5,41.7,52,29.95,10.0,NNW,6.9,-,N/A,,Scattered Clouds,340,2013-10-07 17:35:00
12:55 PM,59.9,41.7,51,29.95,10.0,North,3.5,-,N/A,,Clear,350,2013-10-07 17:55:00
1:14 PM,61.2,41.4,48,29.95,10.0,NNW,3.5,-,N/A,,Clear,330,2013-10-07 18:14:00
1:35 PM,61.5,40.6,46,29.94,10.0,Calm,Calm,-,N/A,,Clear,0,2013-10-07 18:35:00
1:55 PM,61.9,37.9,41,29.94,10.0,NW,6.9,-,N/A,,Clear,310,2013-10-07 18:55:00
2:14 PM,62.2,36.9,39,29.94,10.0,NW,6.9,-,N/A,,Clear,310,2013-10-07 19:14:00
2:35 PM,62.6,36.9,38,29.94,10.0,NNW,6.9,-,N/A,,Scattered Clouds,330,2013-10-07 19:35:00
2:55 PM,62.8,37.8,40,29.94,10.0,WNW,5.8,-,N/A,,Clear,290,2013-10-07 19:55:00
3:14 PM,63.1,36.3,37,29.94,10.0,WNW,8.1,-,N/A,,Clear,300,2013-10-07 20:14:00
3:35 PM,63.5,35.6,35,29.94,10.0,WNW,6.9,-,N/A,,Clear,300,2013-10-07 20:35:00
3:55 PM,63.5,37.4,38,29.94,10.0,NW,5.8,-,N/A,,Clear,310,2013-10-07 20:55:00
4:14 PM,62.8,37.9,40,29.94,10.0,NW,4.6,-,N/A,,Clear,310,2013-10-07 21:14:00
4:35 PM,63.3,38.1,39,29.94,10.0,Calm,Calm,-,N/A,,Clear,0,2013-10-07 21:35:00
4:54 PM,63.5,39.0,41,29.94,10.0,Calm,Calm,-,N/A,,Clear,0,2013-10-07 21:54:00
5:15 PM,63.1,36.9,38,29.94,10.0,Calm,Calm,-,N/A,,Clear,0,2013-10-07 22:15:00
5:34 PM,62.8,37.9,40,29.94,10.0,Calm,Calm,-,N/A,,Clear,0,2013-10-07 22:34:00
5:54 PM,61.9,37.9,41,29.94,10.0,Calm,Calm,-,N/A,,Clear,0,2013-10-07 22:54:00
6:15 PM,60.1,39.4,46,29.95,10.0,Calm,Calm,-,N/A,,Clear,0,2013-10-07 23:15:00
6:34 PM,57.2,41.0,55,29.95,10.0,Calm,Calm,-,N/A,,Scattered Clouds,0,2013-10-07 23:34:00
6:54 PM,53.1,41.2,64,29.95,10.0,Calm,Calm,-,N/A,,Scattered Clouds,0,2013-10-07 23:54:00
7:15 PM,49.6,42.8,77,29.96,10.0,Calm,Calm,-,N/A,,Scattered Clouds,0,2013-10-08 00:15:00
7:34 PM,47.8,42.3,81,29.96,10.0,Calm,Calm,-,N/A,,Scattered Clouds,0,2013-10-08 00:34:00
7:55 PM,46.4,42.3,85,29.96,10.0,Calm,Calm,-,N/A,,Mostly Cloudy,0,2013-10-08 00:55:00
8:15 PM,45.5,42.3,88,29.98,10.0,Calm,Calm,-,N/A,,Mostly Cloudy,0,2013-10-08 01:15:00
8:34 PM,45.0,42.1,90,29.98,10.0,Calm,Calm,-,N/A,,Mostly Cloudy,0,2013-10-08 01:34:00
8:55 PM,44.4,41.7,90,29.98,10.0,Calm,Calm,-,N/A,,Mostly Cloudy,0,2013-10-08 01:55:00
9:15 PM,44.1,41.7,91,29.98,10.0,Calm,Calm,-,N/A,,Mostly Cloudy,0,2013-10-08 02:15:00
9:34 PM,43.2,41.0,92,29.98,10.0,Calm,Calm,-,N/A,,Mostly Cloudy,0,2013-10-08 02:34:00
9:55 PM,42.3,40.3,93,29.98,10.0,Calm,Calm,-,N/A,,Scattered Clouds,0,2013-10-08 02:55:00
10:15 PM,41.7,39.6,92,29.98,10.0,Calm,Calm,-,N/A,,Scattered Clouds,0,2013-10-08 03:15:00
10:29 PM,41.4,39.4,93,29.98,10.0,Calm,Calm,-,N/A,,Scattered Clouds,0,2013-10-08 03:29:00
10:55 PM,41.9,39.9,93,29.98,10.0,Calm,Calm,-,N/A,,Scattered Clouds,0,2013-10-08 03:55:00
11:14 PM,41.7,39.9,93,29.98,10.0,Calm,Calm,-,N/A,,Scattered Clouds,0,2013-10-08 04:14:00
11:35 PM,41.5,39.7,93,29.98,10.0,Calm,Calm,-,N/A,,Scattered Clouds,0,2013-10-08 04:35:00
11:54 PM,41.7,40.1,94,29.98,10.0,Calm,Calm,-,N/A,,Scattered Clouds,0,2013-10-08 04:54:00